Location: Saint-Palais-sur-Mer
(45.6429°N, 1.0859°W)
Time: 21:10:17
(UTC+01:00)

BlueWalker 3 - Pass Details

Date: 14 December 2023
Orbit: 486 x 500 km, 53.2° (Epoch: 26 February)

Event Time Altitude Azimuth Distance (km) Brightness Sun altitude
Rises 18:55:32 0° 194° (SSW) 2,588 6.0 -15.8°
Reaches altitude 10° 18:58:13 10° 174° (S) 1,712 4.8 -16.2°
Maximum altitude 19:00:53 18° 131° (SE) 1,297 3.7 -16.7°
Enters shadow 19:00:53 18° 131° (SE) 1,297 3.7 -16.7°
